AEHF-5 (USA 292)

Last updated on Thu Jul 03 2025 00:02:48 GMT+0000 (Coordinated Universal Time)

1 44481U 19051A 25183.57266933 -.00000250 00000+0 00000+0 0 9993 2 44481 1.9467 316.1059 0065885 13.3726 250.5964 1.00269804 21755
UTC large
Height (km)
Speed (km/s)
/
Latitude / Longitude
Inclination (degrees)
Orbital Period (minutes)
Azimuth
Elevation
Range (km)
Doppler Factor

Next 0 passes for location: London (51.5072 / 0.1276)

Sorry there are no passes over London.